GRBAlpha
1 47959U 21022AD 25160.45426279 .07940347 25506-5 90589-3 0 9995
2 47959 97.3899 75.6235 0011032 227.2558 132.7812 16.36806138232695
TUBIN
1 48900U 21059X 25184.81929285 .00037539 00000-0 42492-3 0 9993
2 48900 97.6760 356.0523 0004279 140.4390 219.7180 15.62333058223826
LEDSAT
1 49069U 21073D 25184.77471453 .00066873 00000-0 71422-3 0 9998
2 49069 97.3878 267.3764 0006934 346.2275 13.8793 15.63683444215214
CUTE
1 49263U 21088D 25184.47972681 .00013092 00000-0 25421-3 0 9999
2 49263 97.4497 261.4401 0009232 148.0798 212.1013 15.47730681208122
TeikyoSat 4
1 49396U 21102B 25184.37752688 .00001839 00000-0 12414-3 0 9999
2 49396 97.4088 221.9462 0013822 56.8016 303.4536 15.07724044200131
Z-Sat
1 49399U 21102E 25184.86653197 .00003412 00000-0 18771-3 0 9992
2 49399 97.3787 225.6644 0018554 25.3770 334.8369 15.14578314200651
KOSEN 1
1 49402U 21102H 25184.69245333 .00005155 00000-0 23790-3 0 9990
2 49402 97.3692 229.0940 0015477 1.4246 358.7031 15.20554777200950
HO-113
1 50466U 21131B 25184.85820104 .00000414 00000-0 14292-3 0 9997
2 50466 98.5107 274.0928 0005281 71.5633 288.6130 14.40837624184949
Foresail-1
1 52766U 22057AL 25176.64799660 .13857605 27391-5 25307-3 0 9992
2 52766 97.5832 331.2310 0012137 233.7199 258.4922 16.46795272172486
SNUGLITE 2
1 52899U 22065F 25184.83421569 .00000796 00000-0 16368-3 0 9995
2 52899 98.1717 326.5755 0008411 45.3934 314.7952 14.63258552160035
UmKA 1 (RS40S)
1 57172U 23091G 25184.83909730 .00004491 00000-0 23983-3 0 9992
2 57172 97.5567 240.0963 0012869 247.5734 112.4135 15.15566434111151
CubeBel-2 (EU11S)
1 57175U 23091K 25184.87014099 .00006580 00000-0 31115-3 0 9991
2 57175 97.5566 241.4235 0010518 254.1282 105.8794 15.19683453111243
VERONIKA
1 58261U 23174F 25184.80879623 .00183586 00000-0 10862-2 0 9992
2 58261 97.4093 272.5657 0004770 256.8150 103.2584 15.77562992 92495
ENSO
1 58470U 23185J 25184.86583461 .00050355 00000-0 66625-3 0 9990
2 58470 97.3721 260.8039 0004913 357.6505 2.4727 15.58160484 88810
EIRSAT-1
1 58472U 23185L 25184.86598621 .00122670 00000-0 91355-3 0 9994
2 58472 97.3655 263.1715 0002119 324.2738 35.8384 15.72413285 88971
SONATE-2
1 59112U 24043Q 25184.33669017 .00012235 00000-0 34613-3 0 9999
2 59112 97.5160 316.0056 0011263 36.4682 323.7327 15.36398878 73983
MO-122
1 60209U 24125G 25184.54091073 .00015008 00000-0 41652-3 0 9995
2 60209 97.2777 35.8992 0019639 55.4575 304.8520 15.36806046 55633
GRBBeta
1 60237U 24128C 25184.62420201 .00003403 00000-0 26085-3 0 9996
2 60237 61.9927 355.7117 0053667 62.8534 297.8014 15.02808006 53816
Curium One
1 60242U 24128H 25184.62011840 .00005982 00000-0 41637-3 0 9991
2 60242 61.9826 353.6590 0053544 59.1233 301.5109 15.05409229 53850
ROBUSTA-3A
1 60243U 24128J 25184.49741694 .00005784 00000-0 40873-3 0 9995
2 60243 61.9898 354.9975 0052535 56.7929 303.8184 15.04933052 53825
CatSat
1 60246U 24125J 25184.55419475 .00008028 00000-0 26520-3 0 9998
2 60246 97.2577 34.8511 0042228 11.2509 348.9666 15.30767662 53659
HYPERVIEW-1G (RS66S)
1 61772U 24199AP 25184.84692711 .00017463 00000-0 49363-3 0 9995
2 61772 97.3508 53.6639 0015312 105.0933 255.2007 15.36280931 80683
AO-123
1 61781U 24199AY 25184.86787751 .00005188 00000-0 18826-3 0 9997
2 61781 97.3524 52.3060 0017478 109.9774 250.3350 15.28620122 80594
ZIMSAT 2
1 61783U 24199BA 25184.87744449 .00031755 00000-0 73937-3 0 9990
2 61783 97.3482 54.5018 0015085 102.5889 257.7046 15.42106072 83892
HADES-R (SO-124)
1 62690U 25009CK 25184.15685236 .00031741 00000-0 10760-2 0 9997
2 62690 97.4087 264.8921 0002247 45.2874 314.8549 15.30485680 25750
HYDRA-T
1 62692U 25009CM 25184.20351287 .00028749 00000-0 96657-3 0 9995
2 62692 97.4085 264.9817 0001841 42.4682 317.6701 15.30774660 25761
JINJUSat 1B
1 63210U 25052A 25184.28133854 .00007818 00000-0 35496-3 0 9994
2 63210 97.4390 78.1078 0002764 216.3047 143.8002 15.21057502 16855
NUSHSAT 1
1 63211U 25052B 25184.27236615 .00008902 00000-0 40049-3 0 9998
2 63211 97.4383 78.1059 0002608 224.7848 135.3178 15.21329779 16854
TEVEL2-4
1 63213U 25052D 25184.61966544 .00009140 00000-0 41482-3 0 9996
2 63213 97.4298 78.2884 0001439 248.1986 111.9097 15.21023124 16903
TEVEL2-5
1 63214U 25052E 25184.22584168 .00008210 00000-0 37331-3 0 9997
2 63214 97.4301 77.8986 0001432 251.4860 108.6220 15.20992692 16846
TEVEL2-6
1 63215U 25052F 25184.62334517 .00009027 00000-0 41047-3 0 9999
2 63215 97.4299 78.2854 0001477 251.7235 108.3840 15.20960452 16901
TEVEL2-1
1 63217U 25052H 25184.63788493 .00009406 00000-0 43034-3 0 9997
2 63217 97.4275 78.2308 0001648 284.0790 76.0262 15.20738539 16904
TEVEL2-2
1 63218U 25052J 25184.63817245 .00009463 00000-0 43290-3 0 9993
2 63218 97.4276 78.2317 0001694 285.1526 74.9522 15.20740133 16905
TEVEL2-3
1 63219U 25052K 25184.63838424 .00009435 00000-0 43168-3 0 9999
2 63219 97.4276 78.2309 0001676 285.7731 74.3320 15.20733647 16903
TEVEL2-8
1 63237U 25052AD 25184.65710791 .00009223 00000-0 43707-3 0 9991
2 63237 97.4338 78.1452 0006271 297.3574 62.7022 15.19514858 16897
TEVEL2-9
1 63238U 25052AE 25184.46286335 .00008317 00000-0 39527-3 0 9991
2 63238 97.4337 77.9488 0006359 298.0859 61.9732 15.19445160 16869
TEVEL2-7
1 63239U 25052AF 25184.66292050 .00008853 00000-0 42086-3 0 9994
2 63239 97.4337 78.1386 0006382 297.7678 62.2909 15.19416344 16896
HYDRA-W
1 63490U 25052BL 25184.18669944 .00020675 00000-0 84838-3 0 9997
2 63490 97.4287 78.0887 0009391 292.9403 67.0843 15.24220442 16854
HADES-ICM (SO-125)
1 63492U 25052BN 25184.14301182 .00018303 00000-0 76251-3 0 9997
2 63492 97.4290 78.0021 0009718 297.4751 62.5498 15.23732086 16845
